Location: Bienfait
(49.1431°N, 102.8077°W)
Time: 20:50:49
(UTC+00:00)

Envisat - Pass Details

Date: 28 January 2022
Orbit: 764 x 765 km, 98.2° (Epoch: 22 May)

Event Time Altitude Azimuth Distance (km) Brightness Sun altitude
Rises 11:22:40 0° 18° (NNE) 3,243 6.5 -30.1°
Reaches altitude 10° 11:25:04 10° 24° (NNE) 2,312 5.8 -29.7°
Maximum altitude 11:29:59 48° 99° (E) 1,000 3.9 -28.9°
Drops below altitude 10° 11:34:52 10° 173° (S) 2,296 5.5 -28.1°
Sets 11:37:15 0° 179° (S) 3,218 6.2 -27.7°
